Location: Arcizac
(43.0933°N, 0.0112°E)
Time: 13:33:21
(UTC+00:00)

Radarsat Rocket - Pass Details

Date: 14 December 2019
Orbit: 933 x 1492 km, 100.6° (Epoch: 18 January)

Event Time Altitude Azimuth Distance (km) Brightness Sun altitude
Rises 16:45:22 0° 161° (SSE) 3,756 7.2 -4.0°
Reaches altitude 10° 16:47:54 10° 161° (SSE) 2,754 6.5 -4.4°
Maximum altitude 16:53:58 89° 73° (ENE) 954 4.0 -5.4°
Drops below altitude 10° 16:59:49 10° 344° (NNW) 2,651 6.2 -6.3°
Sets 17:02:13 0° 344° (NNW) 3,607 6.9 -6.7°
